Dewpoint
55 55 55 55 55 56 56 57 57 57 57 57 57 58 59 58 58 54 37 39 48 75 72 66 59 63 64 58 57 51 44 42 42 48 48 55 54 60 60 60 60 61 61 61 66
55 55 55 55 55 55 55 56 56 56 56 57 57 57 58 58 54 44 52 64 70 74 60 53 51 56 48 40 45 46 45 42 43 47 50 54 55 59 59 58 58 61 64 66 67
54 54 54 54 55 55 55 55 55 55 56 56 57 57 58 58 42 24 67 67 70 68 53 45 46 37 29 35 41 46 42 44 44 46 51 53 55 58 58 56 57 60 64 66 66
53 53 54 54 54 55 55 55 55 55 55 56 56 57 57 54 21 22 69 67 70 59 38 32 32 28 24 23 32 38 42 43 44 49 51 53 55 56 57 53 57 62 65 65 65
53 53 53 53 54 54 54 55 55 55 55 55 56 57 52 33 29 30 65 70 62 49 29 28 24 23 20 28 29 32 31 40 44 50 50 54 55 54 56 56 60 63 65 65 65
53 53 54 54 54 54 55 55 55 54 55 56 56 55 45 25 28 40 59 60 57 44 32 27 23 25 23 32 31 29 35 41 46 50 51 51 54 54 55 61 62 63 64 64 64
52 53 54 54 53 54 55 55 54 54 55 57 56 54 44 28 31 37 42 47 51 41 31 26 25 27 30 29 28 44 43 46 46 48 50 53 53 53 57 61 62 62 63 64 65
52 53 53 53 53 54 55 54 53 55 57 58 57 55 37 39 39 42 41 35 39 35 29 29 26 21 22 30 41 41 42 40 46 48 52 48 43 53 59 60 60 61 62 63 64
52 53 53 54 54 54 53 53 54 56 57 58 55 49 39 49 40 40 41 26 30 35 33 24 27 22 24 29 38 40 37 40 44 47 50 48 44 53 59 59 59 60 61 62 64
53 53 53 53 53 53 52 52 53 57 57 56 55 47 42 33 34 37 38 26 24 27 25 21 20 16 24 29 26 36 38 40 41 46 49 47 47 55 58 58 59 61 61 62 63
53 52 52 52 52 51 50 40 36 35 46 38 35 39 35 34 34 35 32 28 19 25 21 22 15 11 17 30 32 35 39 38 42 46 46 47 47 54 57 58 58 61 62 62 62
52 52 52 51 51 51 45 19 31 28 19 19 22 26 29 30 26 29 32 30 24 22 15 17 12 17 20 24 31 39 38 39 41 45 45 47 46 52 56 57 57 59 60 61 62
52 51 51 50 50 44 38 28 34 31 18 18 23 23 26 27 25 24 29 30 27 27 15 12 10 17 23 24 25 35 37 39 38 42 46 46 43 50 55 57 57 57 58 59 60
51 51 51 48 37 41 32 37 37 33 23 23 25 28 33 31 29 28 26 29 23 26 20 15 12 14 19 24 24 25 35 38 39 39 37 43 35 45 50 55 56 56 57 57 59
51 50 50 48 44 38 30 39 36 32 16 22 25 30 33 31 22 29 31 30 27 24 21 19 12 16 16 21 28 27 32 33 37 37 39 43 38 37 50 51 54 55 56 57 57
50 49 49 46 45 42 41 40 34 24 18 21 30 26 28 28 25 29 28 28 29 26 19 21 17 12 17 24 28 28 29 32 38 35 31 33 37 30 46 49 49 53 55 56 57
49 48 48 44 35 40 39 24 20 19 22 18 22 21 20 24 25 24 24 26 26 28 27 24 19 15 16 21 28 26 25 25 26 29 24 33 40 35 40 47 48 49 53 55 56
47 48 47 46 46 43 32 12 17 17 16 21 22 21 16 21 24 20 24 22 28 28 24 24 18 19 17 15 23 25 23 23 25 24 23 37 34 33 41 41 47 50 51 53 55
47 44 42 42 46 43 20 -1 8 18 24 23 21 18 16 20 20 21 23 21 25 26 24 22 21 15 16 20 23 25 24 23 23 24 21 26 37 34 38 40 43 46 50 53 54
43 41 35 44 46 35 12 7 5 21 25 15 17 21 18 20 16 18 21 23 24 25 27 24 20 12 13 16 21 22 23 20 23 27 24 23 28 23 37 38 42 46 49 51 55
42 27 35 46 39 28 9 4 5 9 22 13 16 19 22 16 17 17 17 20 19 22 26 24 19 14 17 15 12 18 19 24 22 23 23 21 21 35 40 45 42 44 48 51 55
39 12 35 41 32 26 19 17 23 11 7 7 17 19 17 16 14 15 15 20 20 20 19 23 22 21 16 16 16 15 20 23 20 29 24 22 20 30 36 38 40 42 45 50 57
35 34 36 35 23 26 30 26 26 21 19 19 12 17 18 15 17 19 18 19 21 19 26 23 21 20 19 18 18 18 17 21 22 25 32 20 20 33 37 39 41 44 48 53 55
36 27 32 33 31 29 31 26 24 26 26 27 23 25 28 28 29 27 23 23 26 20 50 40 31 29 21 23 19 17 17 20 20 19 22 23 23 30 34 42 43 47 51 53 55
36 33 39 34 33 37 31 26 23 23 27 29 32 29 29 29 28 28 29 28 26 38 41 37 33 31 28 27 21 17 12 16 22 23 22 22 27 29 40 42 46 47 52 53 54
36 37 37 36 37 35 32 26 26 29 30 25 28 26 28 32 32 28 30 30 33 39 40 31 36 28 25 26 22 17 17 15 19 18 24 21 28 32 38 43 46 48 53 53 53
39 38 36 31 32 31 29 29 28 30 29 31 29 29 29 31 35 36 36 37 40 41 45 45 37 36 30 21 21 19 20 19 21 22 23 23 29 35 36 42 45 48 52 54 54
Lifted_Index
18 18 18 17 17 17 17 17 17 17 17 16 16 15 14 13 13 11 10 10 6 0 -2 -1 -1 -2 -2 -1 -1 -1 -1 -1 -1 -1 -2 -2 -3 -3 -3 -3 -3 -3 -3 -3 -4
18 18 18 18 18 17 17 17 17 17 17 17 16 15 15 14 13 12 11 9 5 1 0 1 1 0 1 1 1 -0 -1 -1 -1 -1 -1 -2 -3 -3 -3 -3 -3 -3 -4 -4 -4
19 19 19 18 18 18 18 17 17 17 17 17 16 16 15 14 13 11 10 8 5 3 4 5 4 3 3 3 2 0 -0 -0 -0 -1 -1 -2 -2 -3 -2 -2 -3 -3 -4 -4 -5
19 19 19 19 18 18 18 18 17 17 16 16 16 16 15 14 13 11 9 7 6 6 7 7 6 4 4 3 2 1 1 0 -0 -0 -1 -2 -2 -2 -2 -2 -2 -3 -4 -4 -5
19 19 19 19 19 18 18 18 17 17 16 16 16 16 15 13 13 12 9 6 6 8 8 7 6 4 4 3 3 2 2 1 0 -0 -1 -1 -2 -2 -2 -2 -3 -3 -4 -4 -4
20 19 19 19 19 19 18 18 17 17 16 16 16 15 14 13 13 13 10 7 7 8 9 7 6 5 4 4 3 2 2 1 0 -0 -1 -1 -2 -2 -3 -3 -3 -3 -4 -4 -4
20 19 19 19 19 19 18 17 17 16 16 15 15 14 13 13 13 12 11 10 9 10 9 8 7 5 5 4 3 2 0 0 -0 -0 -1 -1 -2 -2 -3 -3 -3 -3 -3 -3 -3
19 19 19 19 19 19 18 17 16 15 15 14 14 13 12 12 12 12 12 11 11 11 10 9 8 6 5 4 2 1 -0 -1 -0 -0 -1 -1 -2 -2 -3 -4 -3 -3 -3 -3 -3
19 19 19 19 19 18 18 17 15 14 13 12 12 11 11 11 11 11 11 12 12 12 11 10 9 7 6 4 2 1 -0 -1 -1 -1 -1 -1 -2 -2 -3 -4 -3 -3 -3 -3 -3
19 19 19 19 19 18 17 16 14 13 11 11 11 10 10 10 10 10 11 11 11 11 11 10 9 7 6 5 3 1 -0 -1 -1 -1 -2 -2 -2 -3 -3 -4 -4 -4 -3 -3 -3
19 19 20 20 19 18 17 15 14 12 11 10 10 10 10 11 11 10 10 10 10 11 10 10 9 7 6 5 3 1 -0 -1 -1 -1 -2 -2 -2 -3 -3 -4 -4 -4 -4 -4 -3
20 20 20 20 19 18 17 15 15 14 11 10 10 10 11 11 11 10 10 10 10 9 10 9 8 7 5 5 3 2 -0 -1 -1 -1 -2 -2 -2 -3 -4 -4 -4 -4 -4 -3 -3
20 20 20 19 18 18 17 16 17 15 11 9 9 10 10 10 10 10 10 10 9 9 9 9 8 7 5 4 4 3 1 -0 -1 -1 -1 -2 -2 -2 -3 -4 -4 -4 -4 -3 -3
20 20 20 19 18 17 17 17 18 15 10 7 8 9 10 9 9 9 10 10 9 9 8 8 8 7 5 5 4 4 2 0 -1 -1 -1 -1 -1 -2 -3 -3 -4 -4 -3 -3 -3
20 20 20 19 18 17 17 18 17 12 7 6 8 9 9 9 9 9 10 9 9 9 9 8 8 7 5 5 4 4 3 1 0 -0 -0 -0 -0 -0 -2 -3 -3 -3 -3 -3 -3
20 20 20 19 18 17 18 17 13 9 5 6 7 8 8 8 9 9 9 9 8 8 8 8 7 7 5 4 4 3 2 2 1 0 0 1 1 1 -1 -2 -3 -3 -3 -3 -3
20 20 20 18 17 17 17 14 9 6 6 6 7 7 7 7 8 8 8 8 8 7 7 7 7 6 6 4 3 2 2 1 0 0 1 2 2 1 0 -1 -2 -2 -3 -3 -3
20 19 19 17 17 16 15 11 7 6 7 7 6 6 6 7 7 7 7 7 7 7 6 5 5 6 5 4 3 2 2 1 0 0 1 2 2 2 1 -0 -1 -2 -2 -3 -3
19 18 17 16 15 15 12 8 6 7 8 7 6 5 6 6 6 6 7 7 6 6 6 5 4 5 5 4 3 3 2 1 1 0 0 1 2 2 1 0 -0 -1 -2 -2 -3
17 16 15 14 13 12 10 8 8 9 9 7 6 5 5 5 5 6 6 6 6 5 5 5 4 4 4 4 3 3 2 1 1 0 -0 0 1 2 2 1 0 -0 -1 -2 -3
16 15 13 12 11 10 9 8 9 10 9 8 7 6 6 5 5 5 6 5 5 4 4 4 4 4 4 3 3 2 2 1 1 0 0 0 1 2 2 1 1 0 -0 -1 -2
15 14 13 11 10 9 8 9 9 10 9 9 8 7 7 6 5 5 5 5 4 4 3 3 3 3 4 3 3 2 2 1 1 1 1 0 1 2 1 1 1 1 0 -1 -2
14 13 12 11 9 8 8 9 9 9 9 8 8 8 7 6 5 5 5 4 3 3 2 2 2 2 3 4 4 3 2 2 1 1 1 1 1 2 1 1 0 0 -0 -1 -1
13 12 11 9 8 8 8 8 8 8 8 7 7 7 6 6 5 5 5 4 3 2 1 0 1 1 2 3 4 4 3 3 2 1 1 1 2 2 1 1 0 -0 -0 -1 -1
10 10 8 7 7 7 7 8 8 8 7 7 6 6 5 5 5 5 4 3 2 1 -0 -1 -0 0 1 2 3 3 4 3 3 2 2 2 2 2 1 0 -0 -0 -1 -1 -1
8 8 7 7 6 6 6 7 7 7 7 6 6 5 5 5 4 4 3 3 2 0 -1 -1 -1 0 1 1 2 2 3 3 3 3 3 3 3 2 1 0 -0 -1 -1 -1 -1
7 7 7 7 6 6 6 6 6 7 6 6 5 5 5 5 4 3 3 2 1 0 -1 -2 -1 -0 1 1 1 2 2 3 4 4 3 3 3 2 1 0 -0 -1 -1 -2 -1